GSAT-29

Last updated on Thu Oct 30 2025 00:02:51 GMT+0000 (Coordinated Universal Time)

1 43698U 18089A 25302.48199777 .00000094 00000+0 00000+0 0 9991 2 43698 0.0575 264.3792 0003790 313.8081 48.5230 1.00274818 25487
UTC large
Height (km)
Speed (km/s)
/
Latitude / Longitude
Inclination (degrees)
Orbital Period (minutes)
Azimuth
Elevation
Range (km)
Doppler Factor

Next 0 passes for location: London (51.5072 / 0.1276)

Sorry there are no passes over London.